Kelowna, British Columbia

11:19 PM PDT on June 26, 2017 (GMT -0700)
Kelowna

Weather History for CYLW - October, 2011

Change the Weather History Date:

Wednesday, October 26, 2011

  Actual Average Record
Temperature  
Mean Temperature 32 °F -  
Max Temperature 43 °F 42 °F 59 °F (1998)
Min Temperature 22 °F 27 °F 17 °F (2002)
Degree Days  
Heating Degree Days 32    
Moisture  
Dew Point 28 °F    
Average Humidity 79    
Maximum Humidity 93    
Minimum Humidity 55    
Precipitation  
Precipitation 0.51 in 0.04 in - ()
Sea Level Pressure  
Sea Level Pressure 30.26 in    
Wind  
Wind Speed 3 mph ()    
Max Wind Speed 7 mph    
Max Gust Speed -    
Visibility 9.2 miles    
Events Rain    
Averages and records for this station are not official NWS values.
T = Trace of Precipitation, MM = Missing Value Source: Averaged Metar Reports

Daily Weather History Graph

Daily Weather History Graph

Search for Another Location

Airport or City:

Trip Planner

Search our weather history database for the weather conditions in past years. The results will help you decide how hot, cold, wet, or windy it might be!

Date:

Astronomy

Oct. 26, 2011 Rise Set
Actual Time 7:36 AM PDT 5:45 PM PDT
Civil Twilight 7:03 AM PDT 6:18 PM PDT
Nautical Twilight 6:25 AM PDT 6:56 PM PDT
Astronomical Twilight 5:48 AM PDT 7:33 PM PDT
Moon 7:36 AM PDT (10/26) 5:22 PM PDT (10/26)
Length of Visible Light 11h 14m
Length of Day
10h 08m
Waning Crescent, 0% of the Moon is Illuminated
Oct 26
Waning Crescent
Oct 26
New
Nov 2
First Quarter
Nov 10
Full
Nov 18
Last Quarter

Hourly Weather History & Observations

Time (PDT) Temp. Windchill Dew Point Humidity Pressure Visibility Wind Dir Wind Speed Gust Speed Precip Events Conditions
12:00 AM 26.6 °F 22.6 °F 24.8 °F 93% 30.44 in 9.0 mi NNW 3.5 mph - N/A   Clear
1:00 AM 26.6 °F - 24.8 °F 93% 30.44 in - Calm Calm - N/A   Clear
2:00 AM 26.6 °F 22.6 °F 23.0 °F 86% 30.43 in 9.0 mi NNW 3.5 mph - N/A   Clear
3:00 AM 24.8 °F - 23.0 °F 93% 30.40 in 9.0 mi NNW 2.3 mph - N/A   Clear
5:00 AM 25 °F - 23 °F 88% 30.35 in 10 mi North 4.6 mph - -  
5:00 AM 24.8 °F 19.1 °F 23.0 °F 93% 30.35 in 9.0 mi NNE 4.6 mph - N/A   Partly Cloudy
6:00 AM 24.8 °F 20.5 °F 23.0 °F 93% 30.35 in 9.0 mi ENE 3.5 mph - N/A   Clear
7:00 AM 24.8 °F - 23.0 °F 93% 30.34 in - Calm Calm - N/A   Clear
8:00 AM 24.8 °F - 23.0 °F 93% 30.33 in - Variable 2.3 mph - N/A   Overcast
9:00 AM 30.2 °F 25.4 °F 28.4 °F 93% 30.32 in 9.0 mi East 4.6 mph - N/A   Overcast
10:00 AM 35.6 °F 31.7 °F 30.2 °F 81% 30.29 in 9.0 mi West 4.6 mph - N/A   Overcast
11:00 AM 37 °F - 32 °F 76% 30.27 in 10 mi South 1.2 mph - -   Overcast
11:00 AM 37.4 °F - 32.0 °F 81% 30.27 in 9.0 mi Calm Calm - N/A   Overcast
3:00 PM 41.0 °F - 33.8 °F 76% 30.18 in 9.0 mi Variable 2.3 mph - N/A   Overcast
4:00 PM 42.8 °F 41.1 °F 30.2 °F 61% 30.17 in 9.0 mi South 3.5 mph - N/A   Overcast
4:34 PM 41.0 °F - 32.0 °F 70% 30.18 in 9.0 mi SW 2.3 mph - N/A Rain Light Rain
5:00 PM 41 °F - 30 °F 55% 30.18 in 10 mi SE 3.5 mph - - Rain Light Rain
5:00 PM 41.0 °F 37.1 °F 30.2 °F 65% 30.17 in 9.0 mi ESE 5.8 mph - N/A Rain Light Rain
5:15 PM 42.8 °F 39.3 °F 28.4 °F 57% 30.17 in 9.0 mi East 5.8 mph - N/A   Overcast
6:00 PM 41.0 °F 37.1 °F 30.2 °F 65% 30.16 in 9.0 mi ESE 5.8 mph - N/A   Mostly Cloudy
7:00 PM 39.2 °F 35.0 °F 28.4 °F 65% 30.17 in 9.0 mi SE 5.8 mph - N/A   Mostly Cloudy
8:00 PM 35.6 °F 32.8 °F 28.4 °F 75% 30.17 in 9.0 mi Variable 3.5 mph - N/A   Clear
9:00 PM 35.6 °F 29.9 °F 28.4 °F 75% 30.16 in 9.0 mi SE 6.9 mph - N/A   Clear
10:00 PM 35.6 °F - 30.2 °F 81% 30.18 in 9.0 mi Variable 2.3 mph - N/A   Overcast
11:00 PM 36 °F - 30 °F 71% 30.20 in 10 mi SSE 2.3 mph - -   Overcast
11:00 PM 35.6 °F - 30.2 °F 81% 30.20 in 9.0 mi Variable 2.3 mph - N/A   Overcast